This is the latest recevied weather packets stored in our database for station/object WD5U-1. If no packets are shown the sender has not sent any weather packets the latest 10 day(s).
| Time | Temp. | Humidity | Pressure | Rain* | Wind** | Luminosity | Snow |
|---|---|---|---|---|---|---|---|
| 1777855216 | 22.78° C | 46% | 1016.2 hPa | 0 mm | - | - | - |
| 1777854619 | 23.33° C | 44% | 1016.4 hPa | 0 mm | - | - | - |
| 1777854265 | 23.89° C | 43% | 1016.4 hPa | 0 mm | - | - | - |
| 1777853303 | 25° C | 41% | 1016.4 hPa | 0 mm | - | - | - |
| 1777853181 | 25.56° C | 39% | 1016.6 hPa | 0 mm | - | - | - |
| 1777852341 | 25.56° C | 38% | 1016.6 hPa | 0 mm | - | - | - |
| 1777851977 | 25.56° C | 37% | 1016.7 hPa | 0 mm | - | - | - |
| 1777851896 | 25.56° C | 36% | 1016.6 hPa | 0 mm | - | - | - |
| 1777851380 | 25.56° C | 37% | 1016.8 hPa | 0 mm | - | - | - |
| 1777851258 | 25° C | 37% | 1016.8 hPa | 0 mm | - | - | - |
| 1777851137 | 25.56° C | 37% | 1016.9 hPa | 0 mm | - | - | - |
| 1777850782 | 26.11° C | 35% | 1016.7 hPa | 0 mm | - | - | - |
| 1777849265 | 26.11° C | 34% | 1016.8 hPa | 0 mm | - | - | - |
| 1777849102 | 26.11° C | 35% | 1017.1 hPa | 0 mm | - | - | - |
| 1777848981 | 26.67° C | 36% | 1017.1 hPa | 0 mm | - | - | - |
| 1777847900 | 26.67° C | 34% | 1017.2 hPa | 0 mm | - | - | - |
| 1777847665 | 26.67° C | 35% | 1017.2 hPa | 0 mm | - | - | - |
| 1777847058 | 26.67° C | 35% | 1017.3 hPa | 0 mm | - | - | - |
| 1777846723 | 26.67° C | 35% | 1017.1 hPa | 0 mm | - | - | - |
| 1777846339 | 26.67° C | 36% | 1017.3 hPa | 0 mm | - | - | - |
| 1777845620 | 27.22° C | 38% | 1017.5 hPa | 0 mm | - | - | - |
| 1777843719 | 26.67° C | 36% | 1018 hPa | 0 mm | - | - | - |
| 1777843221 | 26.67° C | 35% | 1018.3 hPa | 0 mm | - | - | - |
| 1777841419 | 26.67° C | 37% | 1018.6 hPa | 0 mm | - | - | - |
| 1777841065 | 26.67° C | 38% | 1018.8 hPa | 0 mm | - | - | - |
* Rain latest hour (hover to see other rain measurements)
** Current wind speed in m/s (hover to see current wind gust speed)